Le Raizet Airport, Guadeloupe

5:51 PM AST on June 18, 2018 (GMT -0400)
Le Raizet

Weather History for TFFR - September, 2017

Change the Weather History Date:

Monday, September 25, 2017

  Actual Average Record
Temperature  
Mean Temperature 82 °F -  
Max Temperature 88 °F 86 °F 91 °F (1999)
Min Temperature 76 °F 73 °F 73 °F (2004)
Cooling Degree Days 17    
Growing Degree Days 32 (Base 50)    
Moisture  
Dew Point 77 °F    
Average Humidity 85    
Maximum Humidity 100    
Minimum Humidity 63    
Precipitation  
Precipitation 0.01 in 0.30 in - ()
Sea Level Pressure  
Sea Level Pressure 29.97 in    
Wind  
Wind Speed 6 mph ()    
Max Wind Speed 15 mph    
Max Gust Speed -    
Visibility 7.2 miles    
Events Rain    
Averages and records for this station are not official NWS values.
T = Trace of Precipitation, MM = Missing Value Source: Averaged Metar Reports

Daily Weather History Graph

Daily Weather History Graph

Search for Another Location

Airport or City:

Astronomy

Sep. 25, 2017 Rise Set
Actual Time 5:55 AM AST 5:59 PM AST
Civil Twilight 5:33 AM AST 6:21 PM AST
Nautical Twilight 5:08 AM AST 6:46 PM AST
Astronomical Twilight 4:43 AM AST 7:11 PM AST
Moon 10:25 AM AST (9/25) 10:06 PM AST (9/25)
Length of Visible Light 12h 47m
Length of Day
12h 04m
Waxing Crescent, 28% of the Moon is Illuminated
Sep 25
Waxing Crescent
Sep 27
First Quarter
Oct 5
Full
Oct 12
Last Quarter
Oct 19
New

Hourly Weather History & Observations

Time (AST) Temp. Heat Index Dew Point Humidity Pressure Visibility Wind Dir Wind Speed Gust Speed Precip Events Conditions
12:00 AM 78.8 °F - 77.0 °F 94% 29.98 in 6.2 mi NE 9.2 mph - N/A   Unknown
12:30 AM 78.8 °F - 77.0 °F 94% 29.98 in 6.2 mi SE 4.6 mph - N/A Rain Light Rain
1:00 AM 78.8 °F - 77.0 °F 94% 29.98 in 6.2 mi West 3.5 mph - N/A Rain Light Rain
1:30 AM 77.0 °F - 75.2 °F 94% 29.98 in 6.2 mi Variable 2.3 mph - N/A Rain Light Rain
2:00 AM 77 °F - 75 °F 92% 29.97 in 10 mi SW 3.5 mph - - Rain Light Rain
2:00 AM 77.0 °F - 75.2 °F 94% 29.95 in 6.2 mi SW 3.5 mph - N/A Rain Light Rain
2:30 AM 77.0 °F - 75.2 °F 94% 29.92 in 6.2 mi South 3.5 mph - N/A   Partly Cloudy
3:00 AM 77.0 °F - 75.2 °F 94% 29.92 in - SE 3.5 mph - N/A   Clear
3:30 AM 77.0 °F - 75.2 °F 94% 29.89 in 6.2 mi Calm Calm - N/A   Overcast
4:00 AM 77.0 °F - 77.0 °F 100% 29.92 in 6.2 mi SE 3.5 mph - N/A   Overcast
4:30 AM 77.0 °F - 77.0 °F 100% 29.92 in 3.7 mi SSW 3.5 mph - N/A   Unknown
5:00 AM 77 °F - 77 °F 98% 29.94 in 8 mi SW 3.5 mph - -   Clear
5:00 AM 77.0 °F - 77.0 °F 100% 29.92 in 6.2 mi SW 3.5 mph - N/A   Overcast
5:30 AM 77.0 °F - 77.0 °F 100% 29.95 in 6.2 mi WNW 2.3 mph - N/A   Mostly Cloudy
6:00 AM 77.0 °F - 77.0 °F 100% 29.95 in 6.2 mi WNW 2.3 mph - N/A   Mostly Cloudy
6:30 AM 78.8 °F - 77.0 °F 94% 29.95 in 6.2 mi Calm Calm - N/A   Mostly Cloudy
7:00 AM 78.8 °F - 78.8 °F 100% 29.98 in 6.2 mi NNE 3.5 mph - N/A   Overcast
7:30 AM 78.8 °F - 78.8 °F 100% 30.01 in - East 3.5 mph - N/A   Clear
8:00 AM 80 °F - 79 °F 96% 30.02 in 13 mi ENE 2.3 mph - -   Clear
8:00 AM 80.6 °F 88.1 °F 78.8 °F 94% 30.01 in - Variable 2.3 mph - N/A   Clear
8:30 AM 82.4 °F 92.4 °F 78.8 °F 89% 30.01 in - East 5.8 mph - N/A   Clear
9:00 AM 82.4 °F 92.4 °F 78.8 °F 89% 30.04 in - East 8.1 mph - N/A   Clear
9:30 AM 86.0 °F 99.3 °F 78.8 °F 79% 30.04 in 6.2 mi ESE 12.7 mph - N/A   Mostly Cloudy
10:00 AM 84.2 °F 96.1 °F 78.8 °F 84% 30.04 in 6.2 mi East 11.5 mph - N/A   Mostly Cloudy
10:30 AM 84.2 °F 94.1 °F 77.0 °F 79% 30.04 in 6.2 mi ESE 12.7 mph - N/A   Mostly Cloudy
11:00 AM 85 °F - 77 °F 72% 30.03 in 19 mi ESE 13.8 mph - -   Clear
11:00 AM 84.2 °F 94.1 °F 77.0 °F 79% 30.01 in 6.2 mi ESE 13.8 mph - N/A   Unknown
11:30 AM 84.2 °F 94.1 °F 77.0 °F 79% 30.01 in - ESE 12.7 mph - N/A   Clear
12:00 PM 86.0 °F 96.9 °F 77.0 °F 74% 30.01 in 6.2 mi ESE 12.7 mph - N/A   Partly Cloudy
12:30 PM 84.2 °F 94.1 °F 77.0 °F 79% 29.98 in 6.2 mi ESE 11.5 mph - N/A   Mostly Cloudy
1:00 PM 86.0 °F 96.9 °F 77.0 °F 74% 29.98 in 6.2 mi ESE 12.7 mph - N/A   Partly Cloudy
1:30 PM 87.8 °F 97.6 °F 75.2 °F 66% 29.95 in 6.2 mi ESE 15.0 mph - N/A   Scattered Clouds
2:00 PM 87 °F - 76 °F 63% 29.95 in 22 mi ESE 15.0 mph - -   Clear
2:00 PM 87.8 °F 99.7 °F 77.0 °F 70% 29.95 in 6.2 mi ESE 15.0 mph - N/A   Partly Cloudy
2:30 PM 87.8 °F 97.6 °F 75.2 °F 66% 29.92 in 6.2 mi ESE 15.0 mph - N/A   Partly Cloudy
3:00 PM 87.8 °F 97.6 °F 75.2 °F 66% 29.92 in 6.2 mi SE 15.0 mph - N/A   Partly Cloudy
3:30 PM 86.0 °F 96.9 °F 77.0 °F 74% 29.92 in 6.2 mi ESE 13.8 mph - N/A   Partly Cloudy
4:00 PM 86.0 °F 93.4 °F 73.4 °F 66% 29.92 in 6.2 mi ESE 13.8 mph - N/A   Partly Cloudy
4:30 PM 84.2 °F 92.3 °F 75.2 °F 74% 29.92 in - SE 13.8 mph - N/A   Clear
5:00 PM 84 °F - 76 °F 70% 29.94 in 17 mi SE 10.4 mph - -   Clear
5:00 PM 84.2 °F 92.3 °F 75.2 °F 74% 29.92 in - SE 10.4 mph - N/A   Clear
5:30 PM 82.4 °F 89.5 °F 75.2 °F 79% 29.92 in 6.2 mi ESE 11.5 mph - N/A   Partly Cloudy
6:00 PM 82.4 °F 90.9 °F 77.0 °F 84% 29.95 in - ESE 8.1 mph - N/A   Clear
6:30 PM 82.4 °F 90.9 °F 77.0 °F 84% 29.95 in - ESE 5.8 mph - N/A   Clear
7:00 PM 82.4 °F 90.9 °F 77.0 °F 84% 29.95 in - ESE 4.6 mph - N/A   Clear
7:30 PM 82.4 °F 90.9 °F 77.0 °F 84% 29.98 in - East 4.6 mph - N/A   Clear
8:00 PM 81 °F - 77 °F 83% 29.98 in 12 mi East 5.8 mph - -   Clear
8:00 PM 80.6 °F 87.1 °F 77.0 °F 89% 29.98 in 6.2 mi East 5.8 mph - N/A   Overcast
8:30 PM 80.6 °F 87.1 °F 77.0 °F 89% 29.98 in 6.2 mi ESE 4.6 mph - N/A   Mostly Cloudy
9:00 PM 80.6 °F 87.1 °F 77.0 °F 89% 29.98 in 6.2 mi SE 3.5 mph - N/A   Mostly Cloudy
9:30 PM 80.6 °F 87.1 °F 77.0 °F 89% 29.98 in 6.2 mi East 5.8 mph - N/A   Scattered Clouds
10:00 PM 80.6 °F 87.1 °F 77.0 °F 89% 29.98 in 6.2 mi ESE 3.5 mph - N/A   Scattered Clouds
10:30 PM 80.6 °F 87.1 °F 77.0 °F 89% 29.98 in 6.2 mi East 3.5 mph - N/A   Overcast
11:00 PM 80.6 °F 87.1 °F 77.0 °F 89% 29.98 in - Variable 2.3 mph - N/A   Clear
11:30 PM 80.6 °F 87.1 °F 77.0 °F 89% 29.98 in - ESE 2.3 mph - N/A   Clear